This is the latest recevied weather packets stored in our database for station/object N7TUG-8. If no packets are shown the sender has not sent any weather packets the latest 10 day(s).
| Time | Temp. | Humidity | Pressure | Rain* | Wind** | Luminosity | Snow |
|---|---|---|---|---|---|---|---|
| 1777772257 | 21.11° C | 60% | 1012.3 hPa | 0 mm | 2.68 m/s, 316° | - | - |
| 1777771796 | 21.11° C | 60% | 1012.4 hPa | 0 mm | 3.58 m/s, 317° | - | - |
| 1777770996 | 21.11° C | 59% | 1012.3 hPa | 0 mm | 3.13 m/s, 322° | - | - |
| 1777770672 | 21.11° C | 59% | 1012.3 hPa | 0 mm | 3.58 m/s, 320° | - | - |
| 1777770121 | 21.11° C | 58% | 1012.4 hPa | 0 mm | 3.13 m/s, 322° | - | - |
| 1777769902 | 21.11° C | 58% | 1012.4 hPa | 0 mm | 3.58 m/s, 321° | - | - |
| 1777769145 | 21.11° C | 58% | 1012.6 hPa | 0 mm | 3.13 m/s, 331° | - | - |
| 1777768342 | 21.11° C | 59% | 1012.6 hPa | 0 mm | 3.13 m/s, 327° | - | - |
| 1777768241 | 21.11° C | 59% | 1012.6 hPa | 0 mm | 3.13 m/s, 327° | - | - |
| 1777767492 | 21.11° C | 59% | 1012.6 hPa | 0 mm | 2.68 m/s, 319° | - | - |
| 1777767421 | 21.11° C | 59% | 1012.6 hPa | 0 mm | 2.68 m/s, 319° | - | - |
| 1777766591 | 21.11° C | 58% | 1012.7 hPa | 0 mm | 2.68 m/s, 303° | - | - |
| 1777765696 | 21.11° C | 61% | 1013 hPa | 0 mm | 2.24 m/s, 309° | - | - |
| 1777765092 | 20.56° C | 62% | 1013.1 hPa | 0 mm | 2.68 m/s, 314° | - | - |
| 1777764891 | 20.56° C | 63% | 1013.3 hPa | 0 mm | 2.68 m/s, 313° | - | - |
| 1777764031 | 20° C | 65% | 1013.4 hPa | 0 mm | 3.13 m/s, 310° | - | - |
| 1777763337 | 20° C | 66% | 1013.6 hPa | 0 mm | 3.58 m/s, 314° | - | - |
| 1777763161 | 20° C | 66% | 1013.6 hPa | 0 mm | 3.58 m/s, 314° | - | - |
| 1777762602 | 20° C | 67% | 1014 hPa | 0 mm | 2.68 m/s, 330° | - | - |
| 1777762286 | 20° C | 66% | 1014 hPa | 0 mm | 2.68 m/s, 337° | - | - |
| 1777761781 | 20° C | 67% | 1014 hPa | 0 mm | 2.24 m/s, 345° | - | - |
| 1777761518 | 19.44° C | 67% | 1014.1 hPa | 0 mm | 3.13 m/s, 329° | - | - |
| 1777760997 | 20° C | 66% | 1014.2 hPa | 0 mm | 3.13 m/s, 319° | - | - |
| 1777760592 | 20° C | 66% | 1014.3 hPa | 0 mm | 2.68 m/s, 320° | - | - |
| 1777760212 | 20° C | 66% | 1014.3 hPa | 0 mm | 3.13 m/s, 335° | - | - |
* Rain latest hour (hover to see other rain measurements)
** Current wind speed in m/s (hover to see current wind gust speed)